Location: *
(43.4667°N, 11.6833°E)
Time: 18:11:11
(UTC+00:00)

Cosmos 1933 Rocket - Pass Details

Date: 19 July 2019
Orbit: 606 x 631 km, 82.5° (Epoch: 24 August)

Event Time Altitude Azimuth Distance (km) Brightness Sun altitude
Exits shadow 22:50:59 46° 278° (W) 842 4.2 -25.4°
Maximum altitude 22:51:05 46° 282° (WNW) 841 4.3 -25.4°
Drops below altitude 10° 22:55:20 10° 356° (N) 1,991 7.2 -25.5°
Sets 22:57:38 0° 3° (N) 2,897 8.3 -25.6°
